Location: Newark
(51.0500°N, 12.4500°E)
Time: 15:37:47
(UTC+00:00)

Vanguard 1 - Pass Details

Date: 20 February 2020
Orbit: 649 x 3834 km, 34.2° (Epoch: 30 March)

Event Time Altitude Azimuth Distance (km) Brightness Sun altitude
Rises 07:35:41 0° 223° (SW) 7,894 14.6 10.7°
Reaches altitude 10° 07:42:17 10° 216° (SW) 6,647 14.3 11.6°
Maximum altitude 07:58:33 32° 164° (SSE) 4,019 14.2 13.6°
Drops below altitude 10° 08:09:21 10° 108° (ESE) 4,413 14.9 15.0°
Sets 08:12:38 0° 98° (E) 5,018 14.7 15.4°
